Radiation Dose at Monitoring Post of Fukushima Daini Nuclear Power Station
Date,Time,MP-1(microSv/h),MP-2(microSv/h),MP-3(microSv/h),MP-4(microSv/h),MP-5(microSv/h),MP-6(microSv/h),MP-7(microSv/h),Wind Direction,Wind Velocity(m/s),Rain
2022/06/26,00:00,0.156,0.144,0.231,0.222,0.219,0.122,0.078,south-southwest,1.2,Yes
2022/06/26,00:10,0.157,0.143,0.229,0.223,0.216,0.121,0.078,southwest,0.6,Yes
2022/06/26,00:20,0.156,0.145,0.231,0.224,0.219,0.121,0.078,east,1.7,Yes
2022/06/26,00:30,0.155,0.144,0.230,0.221,0.219,0.122,0.078,west-southwest,1.0,Yes
2022/06/26,00:40,0.157,0.145,0.230,0.223,0.217,0.123,0.079,west,2.4,No
2022/06/26,00:50,0.155,0.144,0.232,0.223,0.221,0.121,0.079,-,CALM,Yes
2022/06/26,01:00,0.156,0.144,0.229,0.221,0.219,0.122,0.079,south-southeast,0.6,Yes
2022/06/26,01:10,0.157,0.145,0.232,0.224,0.219,0.122,0.079,south-southwest,1.5,Yes
2022/06/26,01:20,0.155,0.144,0.231,0.223,0.221,0.121,0.078,southwest,2.5,No
2022/06/26,01:30,0.156,0.145,0.230,0.223,0.218,0.122,0.079,southwest,3.1,No
2022/06/26,01:40,0.157,0.144,0.233,0.224,0.217,0.122,0.079,southwest,1.8,Yes
2022/06/26,01:50,0.155,0.144,0.230,0.222,0.220,0.122,0.079,south,2.0,Yes
2022/06/26,02:00,0.157,0.145,0.232,0.223,0.218,0.122,0.079,southwest,2.3,Yes
2022/06/26,02:10,0.157,0.143,0.232,0.223,0.218,0.121,0.078,southwest,3.0,Yes
2022/06/26,02:20,0.155,0.145,0.230,0.222,0.219,0.122,0.079,south-southwest,3.3,Yes
2022/06/26,02:30,0.158,0.145,0.233,0.225,0.218,0.122,0.078,south-southwest,3.0,Yes
2022/06/26,02:40,0.157,0.144,0.231,0.223,0.218,0.122,0.079,south,2.9,Yes
2022/06/26,02:50,0.155,0.145,0.233,0.222,0.219,0.122,0.079,south,3.3,Yes
2022/06/26,03:00,0.158,0.144,0.232,0.224,0.218,0.122,0.079,south-southwest,3.6,Yes
2022/06/26,03:10,0.156,0.143,0.229,0.222,0.219,0.122,0.079,south,3.2,Yes
2022/06/26,03:20,0.155,0.145,0.232,0.223,0.221,0.123,0.079,south,2.7,Yes
2022/06/26,03:30,0.158,0.144,0.231,0.225,0.216,0.122,0.079,south-southwest,1.6,No
2022/06/26,03:40,0.157,0.146,0.230,0.222,0.219,0.122,0.080,west,0.9,No
2022/06/26,03:50,0.156,0.145,0.232,0.225,0.221,0.122,0.079,west-northwest,1.5,No
2022/06/26,04:00,0.157,0.144,0.231,0.224,0.219,0.122,0.079,west-northwest,2.4,No
2022/06/26,04:10,0.157,0.145,0.230,0.222,0.219,0.122,0.079,northwest,2.8,No
2022/06/26,04:20,0.156,0.146,0.233,0.224,0.220,0.122,0.079,northwest,2.2,No
2022/06/26,04:30,0.157,0.145,0.229,0.223,0.218,0.122,0.079,northwest,1.5,No
2022/06/26,04:40,0.156,0.145,0.231,0.222,0.218,0.123,0.079,northwest,1.5,No
2022/06/26,04:50,0.157,0.144,0.232,0.225,0.221,0.123,0.078,north,1.0,No
2022/06/26,05:00,0.157,0.145,0.231,0.224,0.219,0.122,0.079,north-northeast,0.9,No
2022/06/26,05:10,0.155,0.144,0.232,0.222,0.219,0.123,0.079,northeast,1.9,No
2022/06/26,05:20,0.157,0.144,0.231,0.225,0.220,0.123,0.080,northeast,1.6,No
2022/06/26,05:30,0.156,0.145,0.230,0.222,0.218,0.122,0.079,east,1.0,No
2022/06/26,05:40,0.156,0.145,0.233,0.221,0.218,0.122,0.079,south-southeast,0.6,No
2022/06/26,05:50,0.157,0.146,0.230,0.225,0.220,0.122,0.079,southwest,0.8,No
2022/06/26,06:00,0.155,0.146,0.232,0.223,0.219,0.121,0.079,west-northwest,0.6,No
2022/06/26,06:10,0.156,0.144,0.231,0.221,0.218,0.122,0.079,west-northwest,1.3,No
2022/06/26,06:20,0.158,0.144,0.231,0.225,0.216,0.122,0.079,-,CALM,No
2022/06/26,06:30,0.157,0.144,0.230,0.223,0.218,0.123,0.078,south-southeast,1.9,No
2022/06/26,06:40,0.156,0.145,0.233,0.223,0.220,0.123,0.079,south-southeast,3.0,No
2022/06/26,06:50,0.158,0.144,0.230,0.221,0.218,0.122,0.079,south,2.3,No
2022/06/26,07:00,0.155,0.144,0.230,0.224,0.216,0.123,0.079,southwest,2.3,No
2022/06/26,07:10,0.156,0.144,0.229,0.224,0.216,0.123,0.079,southwest,2.3,No
2022/06/26,07:20,0.157,0.144,0.230,0.223,0.221,0.122,0.079,south,0.8,No
2022/06/26,07:30,0.157,0.145,0.230,0.223,0.220,0.122,0.078,south-southeast,2.2,No
2022/06/26,07:40,0.155,0.144,0.231,0.223,0.219,0.122,0.079,south-southeast,3.1,No
2022/06/26,07:50,0.156,0.144,0.231,0.222,0.218,0.123,0.078,south-southeast,3.1,No
2022/06/26,08:00,0.158,0.144,0.231,0.222,0.217,0.122,0.079,south-southeast,4.5,No
2022/06/26,08:10,0.156,0.144,0.231,0.221,0.217,0.121,0.079,south-southeast,5.4,No
2022/06/26,08:20,0.155,0.144,0.232,0.222,0.218,0.122,0.078,south-southeast,5.4,No
2022/06/26,08:30,0.156,0.146,0.231,0.223,0.218,0.122,0.079,south-southeast,5.1,No
2022/06/26,08:40,0.155,0.144,0.233,0.225,0.219,0.122,0.079,south-southeast,5.3,No
2022/06/26,08:50,0.157,0.145,0.231,0.223,0.219,0.122,0.078,south-southeast,4.4,No
2022/06/26,09:00,0.157,0.144,0.231,0.223,0.219,0.122,0.078,south-southeast,4.7,No
2022/06/26,09:10,0.156,0.144,0.231,0.222,0.219,0.122,0.079,south-southeast,7.0,No
2022/06/26,09:20,0.155,0.145,0.232,0.224,0.219,0.123,0.079,south,8.2,No
2022/06/26,09:30,0.156,0.143,0.232,0.223,0.220,0.122,0.079,south-southeast,7.5,No
2022/06/26,09:40,0.157,0.144,0.232,0.223,0.220,0.121,0.078,south-southeast,7.3,No
2022/06/26,09:50,0.156,0.145,0.231,0.223,0.219,0.122,0.079,south-southeast,7.3,No
2022/06/26,10:00,0.156,0.145,0.232,0.225,0.219,0.122,0.079,south-southeast,7.2,No
2022/06/26,10:10,0.155,0.143,0.232,0.223,0.218,0.122,0.079,south,8.4,No
2022/06/26,10:20,0.156,0.144,0.232,0.223,0.219,0.122,0.079,south-southeast,8.3,No
2022/06/26,10:30,0.156,0.144,0.233,0.224,0.219,0.121,0.078,south-southeast,8.1,No
2022/06/26,10:40,0.155,0.144,0.232,0.224,0.219,0.122,0.078,south,9.3,No
2022/06/26,10:50,0.156,0.145,0.232,0.224,0.219,0.122,0.078,south,8.8,No
2022/06/26,11:00,0.156,0.144,0.233,0.223,0.219,0.122,0.078,south,10.3,No
2022/06/26,11:10,0.156,0.144,0.232,0.224,0.219,0.123,0.079,south-southeast,8.6,No
2022/06/26,11:20,0.156,0.145,0.231,0.225,0.219,0.121,0.078,south-southeast,9.5,No
2022/06/26,11:30,0.155,0.145,0.232,0.225,0.220,0.121,0.079,south,8.1,No
2022/06/26,11:40,0.156,0.145,0.232,0.223,0.220,0.121,0.078,south-southeast,6.5,No
2022/06/26,11:50,0.157,0.144,0.231,0.224,0.219,0.120,0.078,south-southeast,8.3,No
2022/06/26,12:00,0.156,0.144,0.231,0.224,0.219,0.122,0.078,south-southeast,9.3,No
2022/06/26,12:10,0.156,0.146,0.232,0.223,0.219,0.122,0.078,south,6.7,No
2022/06/26,12:20,0.155,0.144,0.231,0.223,0.220,0.122,0.078,northwest,6.0,Yes
2022/06/26,12:30,0.157,0.146,0.227,0.220,0.217,0.124,0.081,north,6.9,Yes
2022/06/26,12:40,0.158,0.147,0.228,0.220,0.218,0.124,0.082,north-northwest,5.5,Yes
2022/06/26,12:50,0.157,0.145,0.227,0.220,0.217,0.124,0.082,north-northwest,4.4,Yes
2022/06/26,13:00,0.159,0.146,0.227,0.224,0.217,0.124,0.082,northwest,3.2,No
2022/06/26,13:10,0.158,0.145,0.229,0.224,0.220,0.123,0.082,northwest,2.4,No
2022/06/26,13:20,0.156,0.145,0.230,0.221,0.219,0.123,0.080,west-northwest,2.4,No
2022/06/26,13:30,0.154,0.143,0.227,0.218,0.217,0.123,0.080,west-northwest,2.4,Yes
2022/06/26,13:40,0.154,0.142,0.225,0.218,0.217,0.122,0.079,west,2.3,Yes
2022/06/26,13:50,0.156,0.142,0.224,0.217,0.216,0.122,0.078,west,2.7,No
2022/06/26,14:00,0.154,0.142,0.223,0.220,0.214,0.120,0.078,west,1.7,No
2022/06/26,14:10,0.153,0.143,0.222,0.219,0.214,0.120,0.078,-,CALM,No
2022/06/26,14:20,0.152,0.141,0.223,0.216,0.215,0.121,0.078,west-southwest,1.2,No
2022/06/26,14:30,0.151,0.141,0.225,0.215,0.218,0.120,0.078,west-southwest,2.2,No
2022/06/26,14:40,0.152,0.140,0.225,0.217,0.217,0.120,0.078,west-southwest,0.8,No
2022/06/26,14:50,0.154,0.141,0.226,0.215,0.215,0.120,0.078,south,1.2,No
2022/06/26,15:00,0.153,0.140,0.224,0.215,0.216,0.120,0.077,south-southwest,1.3,No
2022/06/26,15:10,0.152,0.140,0.224,0.216,0.214,0.119,0.077,south-southwest,1.3,No
2022/06/26,15:20,0.152,0.140,0.224,0.217,0.216,0.119,0.077,south,1.8,No
2022/06/26,15:30,0.152,0.141,0.224,0.217,0.216,0.120,0.077,south-southeast,2.1,No
2022/06/26,15:40,0.152,0.141,0.225,0.217,0.215,0.121,0.077,south-southeast,1.9,No
2022/06/26,15:50,0.152,0.142,0.224,0.217,0.216,0.120,0.078,south-southeast,2.4,No
2022/06/26,16:00,0.152,0.141,0.225,0.218,0.216,0.120,0.077,south,2.2,No
2022/06/26,16:10,0.152,0.139,0.225,0.218,0.216,0.120,0.076,southeast,1.5,No
2022/06/26,16:20,0.151,0.140,0.224,0.218,0.215,0.120,0.077,south-southeast,0.9,No
2022/06/26,16:30,0.151,0.140,0.223,0.217,0.215,0.120,0.077,south,1.1,No
2022/06/26,16:40,0.151,0.140,0.223,0.217,0.215,0.119,0.076,southeast,1.2,No
2022/06/26,16:50,0.151,0.139,0.224,0.216,0.213,0.120,0.078,south,1.3,No
2022/06/26,17:00,0.151,0.142,0.221,0.216,0.214,0.119,0.077,-,CALM,No
2022/06/26,17:10,0.154,0.141,0.223,0.219,0.214,0.120,0.078,south,2.2,No
2022/06/26,17:20,0.153,0.142,0.226,0.219,0.213,0.120,0.076,south-southeast,3.6,No
2022/06/26,17:30,0.151,0.140,0.225,0.216,0.213,0.121,0.077,south-southeast,4.3,No
2022/06/26,17:40,0.150,0.140,0.224,0.218,0.217,0.119,0.078,south,3.6,No
2022/06/26,17:50,0.152,0.141,0.223,0.217,0.217,0.119,0.078,south,3.1,No
2022/06/26,18:00,0.153,0.141,0.225,0.219,0.215,0.119,0.077,south,3.4,No
2022/06/26,18:10,0.152,0.140,0.227,0.218,0.214,0.121,0.077,south,3.7,No
2022/06/26,18:20,0.152,0.140,0.226,0.217,0.214,0.120,0.078,south-southwest,2.0,No
2022/06/26,18:30,0.151,0.142,0.223,0.216,0.216,0.120,0.077,southwest,2.4,No
2022/06/26,18:40,0.152,0.141,0.223,0.220,0.219,0.120,0.077,west-southwest,1.8,No
2022/06/26,18:50,0.153,0.141,0.226,0.220,0.216,0.121,0.078,west-southwest,1.5,No
2022/06/26,19:00,0.152,0.141,0.226,0.218,0.214,0.120,0.077,west-southwest,1.6,No
2022/06/26,19:10,0.152,0.142,0.224,0.218,0.216,0.120,0.077,southwest,1.7,No
2022/06/26,19:20,0.154,0.141,0.225,0.220,0.219,0.121,0.077,southwest,1.2,No
2022/06/26,19:30,0.153,0.141,0.227,0.218,0.218,0.120,0.078,west-southwest,1.6,No
2022/06/26,19:40,0.153,0.142,0.226,0.218,0.215,0.121,0.077,west-southwest,1.5,No
2022/06/26,19:50,0.153,0.141,0.225,0.219,0.219,0.120,0.078,west-northwest,1.3,No
2022/06/26,20:00,0.154,0.141,0.227,0.219,0.217,0.121,0.077,northwest,0.9,No
2022/06/26,20:10,0.153,0.142,0.224,0.218,0.216,0.120,0.078,northwest,2.4,No
2022/06/26,20:20,0.153,0.142,0.225,0.220,0.217,0.121,0.078,northwest,2.1,No
2022/06/26,20:30,0.154,0.141,0.227,0.220,0.219,0.121,0.078,northwest,3.4,No
2022/06/26,20:40,0.153,0.142,0.226,0.218,0.216,0.120,0.078,northwest,3.5,No
2022/06/26,20:50,0.153,0.141,0.226,0.220,0.216,0.121,0.079,west-northwest,4.3,No
2022/06/26,21:00,0.154,0.142,0.227,0.219,0.219,0.120,0.078,west-northwest,5.1,No
2022/06/26,21:10,0.152,0.141,0.226,0.218,0.217,0.120,0.078,west-northwest,4.6,No
2022/06/26,21:20,0.152,0.141,0.226,0.220,0.216,0.121,0.078,west-northwest,3.9,No
2022/06/26,21:30,0.155,0.142,0.228,0.219,0.218,0.120,0.078,west-northwest,5.2,No
2022/06/26,21:40,0.153,0.142,0.225,0.217,0.216,0.119,0.078,west-northwest,7.0,No
2022/06/26,21:50,0.152,0.140,0.226,0.220,0.215,0.121,0.079,northwest,5.5,No
2022/06/26,22:00,0.154,0.142,0.227,0.218,0.217,0.120,0.078,west-northwest,2.9,No
2022/06/26,22:10,0.154,0.141,0.223,0.217,0.216,0.120,0.078,west-southwest,2.0,No
2022/06/26,22:20,0.152,0.141,0.226,0.219,0.214,0.121,0.078,west-northwest,2.7,No
2022/06/26,22:30,0.154,0.141,0.226,0.219,0.216,0.121,0.078,west-northwest,4.6,No
2022/06/26,22:40,0.152,0.141,0.223,0.217,0.219,0.120,0.078,west-northwest,3.6,No
2022/06/26,22:50,0.152,0.141,0.226,0.219,0.216,0.121,0.079,west-northwest,1.9,No
2022/06/26,23:00,0.154,0.141,0.226,0.218,0.214,0.120,0.078,west,2.5,No
2022/06/26,23:10,0.153,0.140,0.224,0.217,0.216,0.120,0.078,west-northwest,1.6,No
2022/06/26,23:20,0.152,0.142,0.226,0.220,0.218,0.121,0.078,west,2.5,No
2022/06/26,23:30,0.154,0.141,0.225,0.218,0.215,0.120,0.078,west,3.7,No
2022/06/26,23:40,0.152,0.141,0.224,0.217,0.215,0.120,0.077,west-southwest,3.9,No
2022/06/26,23:50,0.152,0.142,0.226,0.219,0.219,0.121,0.078,west,2.7,No
